<?xml version="1.0" encoding="UTF-8" standalone="no" ?>
<gpx xmlns="http://www.topografix.com/GPX/1/1" xmlns:xsi="http://www.w3.org/2001/XMLSchema-instance" xsi:schemaLocation="http://www.topografix.com/GPX/1/1 http://www.topografix.com/GPX/1/1/gpx.xsd" version="1.1" creator="VisuGPX - https://www.visugpx.com">
  <metadata>
    <name>Aigrefeuille_RemouilleClocherAClocher_20km</name>
    <desc><![CDATA[gnerando idor: 12478625]]></desc>
  </metadata>
  <trk>
    <name><![CDATA[Aigrefeuille_BourgMaineRemouille_20.3km-12478625]]></name>
    <extensions>
      <line xmlns="http://www.topografix.com/GPX/gpx_style/0/2">
        <color>0000FF</color>
        <width>4</width>
      </line>
    </extensions>
    <trkseg>
      <trkpt lat="47.0776" lon="-1.39812">
        <ele>38</ele>
        <time>2023-10-29T17:08:26Z</time>
      </trkpt>
      <trkpt lat="47.07799" lon="-1.39745">
        <ele>35</ele>
        <time>2023-10-29T17:09:46Z</time>
      </trkpt>
      <trkpt lat="47.07838" lon="-1.39797">
        <ele>38</ele>
        <time>2023-10-29T17:10:56Z</time>
      </trkpt>
      <trkpt lat="47.07882" lon="-1.39843">
        <ele>39</ele>
        <time>2023-10-29T17:12:08Z</time>
      </trkpt>
      <trkpt lat="47.07907" lon="-1.39822">
        <ele>37</ele>
        <time>2023-10-29T17:12:47Z</time>
      </trkpt>
      <trkpt lat="47.07932" lon="-1.39815">
        <ele>34</ele>
        <time>2023-10-29T17:13:21Z</time>
      </trkpt>
      <trkpt lat="47.0796" lon="-1.39774">
        <ele>25</ele>
        <time>2023-10-29T17:14:14Z</time>
      </trkpt>
      <trkpt lat="47.08003" lon="-1.39803">
        <ele>25</ele>
        <time>2023-10-29T17:15:17Z</time>
      </trkpt>
      <trkpt lat="47.0803" lon="-1.39802">
        <ele>24</ele>
        <time>2023-10-29T17:15:53Z</time>
      </trkpt>
      <trkpt lat="47.08066" lon="-1.39817">
        <ele>23</ele>
        <time>2023-10-29T17:16:43Z</time>
      </trkpt>
      <trkpt lat="47.08069" lon="-1.39809">
        <ele>22</ele>
        <time>2023-10-29T17:16:51Z</time>
      </trkpt>
      <trkpt lat="47.08076" lon="-1.3981">
        <ele>22</ele>
        <time>2023-10-29T17:17:00Z</time>
      </trkpt>
      <trkpt lat="47.08108" lon="-1.39839">
        <ele>21</ele>
        <time>2023-10-29T17:17:51Z</time>
      </trkpt>
      <trkpt lat="47.08117" lon="-1.39849">
        <ele>21</ele>
        <time>2023-10-29T17:18:06Z</time>
      </trkpt>
      <trkpt lat="47.08135" lon="-1.39896">
        <ele>24</ele>
        <time>2023-10-29T17:18:55Z</time>
      </trkpt>
      <trkpt lat="47.08131" lon="-1.39911">
        <ele>26</ele>
        <time>2023-10-29T17:19:09Z</time>
      </trkpt>
      <trkpt lat="47.08142" lon="-1.3994">
        <ele>28</ele>
        <time>2023-10-29T17:19:39Z</time>
      </trkpt>
      <trkpt lat="47.08164" lon="-1.39973">
        <ele>30</ele>
        <time>2023-10-29T17:20:21Z</time>
      </trkpt>
      <trkpt lat="47.08175" lon="-1.39981">
        <ele>30</ele>
        <time>2023-10-29T17:20:38Z</time>
      </trkpt>
      <trkpt lat="47.08183" lon="-1.3999">
        <ele>30</ele>
        <time>2023-10-29T17:20:51Z</time>
      </trkpt>
      <trkpt lat="47.08194" lon="-1.40017">
        <ele>31</ele>
        <time>2023-10-29T17:21:20Z</time>
      </trkpt>
      <trkpt lat="47.08223" lon="-1.40048">
        <ele>31</ele>
        <time>2023-10-29T17:22:08Z</time>
      </trkpt>
      <trkpt lat="47.08236" lon="-1.40051">
        <ele>31</ele>
        <time>2023-10-29T17:22:25Z</time>
      </trkpt>
      <trkpt lat="47.08252" lon="-1.40068">
        <ele>31</ele>
        <time>2023-10-29T17:22:52Z</time>
      </trkpt>
      <trkpt lat="47.08279" lon="-1.40072">
        <ele>30</ele>
        <time>2023-10-29T17:23:28Z</time>
      </trkpt>
      <trkpt lat="47.08293" lon="-1.40084">
        <ele>30</ele>
        <time>2023-10-29T17:23:50Z</time>
      </trkpt>
      <trkpt lat="47.08357" lon="-1.40138">
        <ele>33</ele>
        <time>2023-10-29T17:25:28Z</time>
      </trkpt>
      <trkpt lat="47.08373" lon="-1.40131">
        <ele>32</ele>
        <time>2023-10-29T17:25:50Z</time>
      </trkpt>
      <trkpt lat="47.08397" lon="-1.40137">
        <ele>33</ele>
        <time>2023-10-29T17:26:23Z</time>
      </trkpt>
      <trkpt lat="47.08444" lon="-1.40146">
        <ele>35</ele>
        <time>2023-10-29T17:27:26Z</time>
      </trkpt>
      <trkpt lat="47.08473" lon="-1.40172">
        <ele>37</ele>
        <time>2023-10-29T17:28:11Z</time>
      </trkpt>
      <trkpt lat="47.08473" lon="-1.40168">
        <ele>37</ele>
        <time>2023-10-29T17:28:15Z</time>
      </trkpt>
      <trkpt lat="47.08526" lon="-1.40139">
        <ele>32</ele>
        <time>2023-10-29T17:29:30Z</time>
      </trkpt>
      <trkpt lat="47.08551" lon="-1.40154">
        <ele>33</ele>
        <time>2023-10-29T17:30:07Z</time>
      </trkpt>
      <trkpt lat="47.08575" lon="-1.40153">
        <ele>32</ele>
        <time>2023-10-29T17:30:39Z</time>
      </trkpt>
      <trkpt lat="47.08626" lon="-1.40189">
        <ele>32</ele>
        <time>2023-10-29T17:31:54Z</time>
      </trkpt>
      <trkpt lat="47.08648" lon="-1.40204">
        <ele>31</ele>
        <time>2023-10-29T17:32:26Z</time>
      </trkpt>
      <trkpt lat="47.08691" lon="-1.40213">
        <ele>33</ele>
        <time>2023-10-29T17:33:24Z</time>
      </trkpt>
      <trkpt lat="47.08714" lon="-1.40151">
        <ele>28</ele>
        <time>2023-10-29T17:34:29Z</time>
      </trkpt>
      <trkpt lat="47.08775" lon="-1.40169">
        <ele>31</ele>
        <time>2023-10-29T17:35:52Z</time>
      </trkpt>
      <trkpt lat="47.08809" lon="-1.40232">
        <ele>35</ele>
        <time>2023-10-29T17:37:05Z</time>
      </trkpt>
      <trkpt lat="47.0886" lon="-1.40255">
        <ele>34</ele>
        <time>2023-10-29T17:38:16Z</time>
      </trkpt>
      <trkpt lat="47.08873" lon="-1.40292">
        <ele>34</ele>
        <time>2023-10-29T17:38:54Z</time>
      </trkpt>
      <trkpt lat="47.08896" lon="-1.40317">
        <ele>34</ele>
        <time>2023-10-29T17:39:32Z</time>
      </trkpt>
      <trkpt lat="47.08936" lon="-1.40338">
        <ele>33</ele>
        <time>2023-10-29T17:40:29Z</time>
      </trkpt>
      <trkpt lat="47.08983" lon="-1.40371">
        <ele>33</ele>
        <time>2023-10-29T17:41:38Z</time>
      </trkpt>
      <trkpt lat="47.09005" lon="-1.404">
        <ele>33</ele>
        <time>2023-10-29T17:42:17Z</time>
      </trkpt>
      <trkpt lat="47.09051" lon="-1.40389">
        <ele>28</ele>
        <time>2023-10-29T17:43:20Z</time>
      </trkpt>
      <trkpt lat="47.09094" lon="-1.40383">
        <ele>23</ele>
        <time>2023-10-29T17:44:17Z</time>
      </trkpt>
      <trkpt lat="47.09189" lon="-1.40447">
        <ele>23</ele>
        <time>2023-10-29T17:46:37Z</time>
      </trkpt>
      <trkpt lat="47.09297" lon="-1.40468">
        <ele>23</ele>
        <time>2023-10-29T17:49:02Z</time>
      </trkpt>
      <trkpt lat="47.09388" lon="-1.40478">
        <ele>22</ele>
        <time>2023-10-29T17:51:04Z</time>
      </trkpt>
      <trkpt lat="47.09461" lon="-1.40503">
        <ele>20</ele>
        <time>2023-10-29T17:52:44Z</time>
      </trkpt>
      <trkpt lat="47.09504" lon="-1.40523">
        <ele>19</ele>
        <time>2023-10-29T17:53:44Z</time>
      </trkpt>
      <trkpt lat="47.09573" lon="-1.40551">
        <ele>21</ele>
        <time>2023-10-29T17:55:20Z</time>
      </trkpt>
      <trkpt lat="47.09672" lon="-1.40599">
        <ele>20</ele>
        <time>2023-10-29T17:57:39Z</time>
      </trkpt>
      <trkpt lat="47.09722" lon="-1.40646">
        <ele>18</ele>
        <time>2023-10-29T17:58:58Z</time>
      </trkpt>
      <trkpt lat="47.09776" lon="-1.40808">
        <ele>15</ele>
        <time>2023-10-29T18:01:42Z</time>
      </trkpt>
      <trkpt lat="47.09756" lon="-1.40874">
        <ele>15</ele>
        <time>2023-10-29T18:02:48Z</time>
      </trkpt>
      <trkpt lat="47.09679" lon="-1.40903">
        <ele>24</ele>
        <time>2023-10-29T18:04:34Z</time>
      </trkpt>
      <trkpt lat="47.0962" lon="-1.4091">
        <ele>29</ele>
        <time>2023-10-29T18:05:53Z</time>
      </trkpt>
      <trkpt lat="47.09594" lon="-1.40944">
        <ele>31</ele>
        <time>2023-10-29T18:06:39Z</time>
      </trkpt>
      <trkpt lat="47.09554" lon="-1.40988">
        <ele>33</ele>
        <time>2023-10-29T18:07:46Z</time>
      </trkpt>
      <trkpt lat="47.09484" lon="-1.41037">
        <ele>35</ele>
        <time>2023-10-29T18:09:29Z</time>
      </trkpt>
      <trkpt lat="47.09383" lon="-1.4118">
        <ele>39</ele>
        <time>2023-10-29T18:12:36Z</time>
      </trkpt>
      <trkpt lat="47.0944" lon="-1.41254">
        <ele>39</ele>
        <time>2023-10-29T18:14:18Z</time>
      </trkpt>
      <trkpt lat="47.09519" lon="-1.413">
        <ele>38</ele>
        <time>2023-10-29T18:16:11Z</time>
      </trkpt>
      <trkpt lat="47.09628" lon="-1.41505">
        <ele>36</ele>
        <time>2023-10-29T18:20:08Z</time>
      </trkpt>
      <trkpt lat="47.09691" lon="-1.41638">
        <ele>35</ele>
        <time>2023-10-29T18:22:35Z</time>
      </trkpt>
      <trkpt lat="47.09773" lon="-1.41707">
        <ele>31</ele>
        <time>2023-10-29T18:24:41Z</time>
      </trkpt>
      <trkpt lat="47.09904" lon="-1.41595">
        <ele>30</ele>
        <time>2023-10-29T18:28:03Z</time>
      </trkpt>
      <trkpt lat="47.09872" lon="-1.41478">
        <ele>33</ele>
        <time>2023-10-29T18:29:58Z</time>
      </trkpt>
      <trkpt lat="47.09884" lon="-1.41472">
        <ele>33</ele>
        <time>2023-10-29T18:30:15Z</time>
      </trkpt>
      <trkpt lat="47.09958" lon="-1.41522">
        <ele>32</ele>
        <time>2023-10-29T18:32:03Z</time>
      </trkpt>
      <trkpt lat="47.10013" lon="-1.41544">
        <ele>29</ele>
        <time>2023-10-29T18:33:19Z</time>
      </trkpt>
      <trkpt lat="47.10045" lon="-1.41573">
        <ele>25</ele>
        <time>2023-10-29T18:34:10Z</time>
      </trkpt>
      <trkpt lat="47.10108" lon="-1.41597">
        <ele>19</ele>
        <time>2023-10-29T18:35:36Z</time>
      </trkpt>
      <trkpt lat="47.10165" lon="-1.41729">
        <ele>22</ele>
        <time>2023-10-29T18:37:58Z</time>
      </trkpt>
      <trkpt lat="47.10333" lon="-1.41822">
        <ele>17</ele>
        <time>2023-10-29T18:41:58Z</time>
      </trkpt>
      <trkpt lat="47.10445" lon="-1.4186">
        <ele>32</ele>
        <time>2023-10-29T18:44:31Z</time>
      </trkpt>
      <trkpt lat="47.10489" lon="-1.42047">
        <ele>40</ele>
        <time>2023-10-29T18:47:31Z</time>
      </trkpt>
      <trkpt lat="47.10514" lon="-1.42632">
        <ele>38</ele>
        <time>2023-10-29T18:56:24Z</time>
      </trkpt>
      <trkpt lat="47.10549" lon="-1.42772">
        <ele>38</ele>
        <time>2023-10-29T18:58:39Z</time>
      </trkpt>
      <trkpt lat="47.10533" lon="-1.42831">
        <ele>37</ele>
        <time>2023-10-29T18:59:37Z</time>
      </trkpt>
      <trkpt lat="47.10349" lon="-1.42701">
        <ele>29</ele>
        <time>2023-10-29T19:04:09Z</time>
      </trkpt>
      <trkpt lat="47.10154" lon="-1.42671">
        <ele>28</ele>
        <time>2023-10-29T19:08:31Z</time>
      </trkpt>
      <trkpt lat="47.09929" lon="-1.42568">
        <ele>35</ele>
        <time>2023-10-29T19:13:45Z</time>
      </trkpt>
      <trkpt lat="47.09881" lon="-1.42552">
        <ele>37</ele>
        <time>2023-10-29T19:14:51Z</time>
      </trkpt>
      <trkpt lat="47.09863" lon="-1.4258">
        <ele>37</ele>
        <time>2023-10-29T19:15:26Z</time>
      </trkpt>
      <trkpt lat="47.09793" lon="-1.42623">
        <ele>39</ele>
        <time>2023-10-29T19:17:07Z</time>
      </trkpt>
      <trkpt lat="47.0977" lon="-1.4266">
        <ele>40</ele>
        <time>2023-10-29T19:17:53Z</time>
      </trkpt>
      <trkpt lat="47.09747" lon="-1.42709">
        <ele>40</ele>
        <time>2023-10-29T19:18:47Z</time>
      </trkpt>
      <trkpt lat="47.09708" lon="-1.42749">
        <ele>40</ele>
        <time>2023-10-29T19:19:50Z</time>
      </trkpt>
      <trkpt lat="47.09635" lon="-1.42809">
        <ele>38</ele>
        <time>2023-10-29T19:21:42Z</time>
      </trkpt>
      <trkpt lat="47.09593" lon="-1.42833">
        <ele>38</ele>
        <time>2023-10-29T19:22:42Z</time>
      </trkpt>
      <trkpt lat="47.09531" lon="-1.42852">
        <ele>39</ele>
        <time>2023-10-29T19:24:07Z</time>
      </trkpt>
      <trkpt lat="47.09508" lon="-1.42881">
        <ele>39</ele>
        <time>2023-10-29T19:24:47Z</time>
      </trkpt>
      <trkpt lat="47.09468" lon="-1.42904">
        <ele>39</ele>
        <time>2023-10-29T19:25:44Z</time>
      </trkpt>
      <trkpt lat="47.09368" lon="-1.43094">
        <ele>40</ele>
        <time>2023-10-29T19:29:23Z</time>
      </trkpt>
      <trkpt lat="47.09249" lon="-1.42986">
        <ele>41</ele>
        <time>2023-10-29T19:32:29Z</time>
      </trkpt>
      <trkpt lat="47.09009" lon="-1.42777">
        <ele>39</ele>
        <time>2023-10-29T19:38:42Z</time>
      </trkpt>
      <trkpt lat="47.08885" lon="-1.42676">
        <ele>39</ele>
        <time>2023-10-29T19:41:51Z</time>
      </trkpt>
      <trkpt lat="47.08984" lon="-1.42496">
        <ele>37</ele>
        <time>2023-10-29T19:45:21Z</time>
      </trkpt>
      <trkpt lat="47.09055" lon="-1.42364">
        <ele>35</ele>
        <time>2023-10-29T19:47:54Z</time>
      </trkpt>
      <trkpt lat="47.0913" lon="-1.42212">
        <ele>35</ele>
        <time>2023-10-29T19:50:44Z</time>
      </trkpt>
      <trkpt lat="47.09016" lon="-1.42187">
        <ele>35</ele>
        <time>2023-10-29T19:53:18Z</time>
      </trkpt>
      <trkpt lat="47.08912" lon="-1.42142">
        <ele>37</ele>
        <time>2023-10-29T19:55:43Z</time>
      </trkpt>
      <trkpt lat="47.08763" lon="-1.42031">
        <ele>41</ele>
        <time>2023-10-29T19:59:26Z</time>
      </trkpt>
      <trkpt lat="47.08697" lon="-1.41968">
        <ele>43</ele>
        <time>2023-10-29T20:01:11Z</time>
      </trkpt>
      <trkpt lat="47.08653" lon="-1.41879">
        <ele>44</ele>
        <time>2023-10-29T20:02:51Z</time>
      </trkpt>
      <trkpt lat="47.08629" lon="-1.41757">
        <ele>45</ele>
        <time>2023-10-29T20:04:46Z</time>
      </trkpt>
      <trkpt lat="47.08576" lon="-1.41565">
        <ele>45</ele>
        <time>2023-10-29T20:07:54Z</time>
      </trkpt>
      <trkpt lat="47.08522" lon="-1.41459">
        <ele>44</ele>
        <time>2023-10-29T20:09:55Z</time>
      </trkpt>
      <trkpt lat="47.08481" lon="-1.41418">
        <ele>44</ele>
        <time>2023-10-29T20:11:01Z</time>
      </trkpt>
      <trkpt lat="47.08476" lon="-1.41357">
        <ele>44</ele>
        <time>2023-10-29T20:11:57Z</time>
      </trkpt>
      <trkpt lat="47.08447" lon="-1.41307">
        <ele>42</ele>
        <time>2023-10-29T20:12:56Z</time>
      </trkpt>
      <trkpt lat="47.08441" lon="-1.41289">
        <ele>42</ele>
        <time>2023-10-29T20:13:15Z</time>
      </trkpt>
      <trkpt lat="47.0825" lon="-1.41084">
        <ele>39</ele>
        <time>2023-10-29T20:18:30Z</time>
      </trkpt>
      <trkpt lat="47.08211" lon="-1.41042">
        <ele>38</ele>
        <time>2023-10-29T20:19:35Z</time>
      </trkpt>
      <trkpt lat="47.08154" lon="-1.41098">
        <ele>39</ele>
        <time>2023-10-29T20:21:06Z</time>
      </trkpt>
      <trkpt lat="47.08115" lon="-1.41125">
        <ele>39</ele>
        <time>2023-10-29T20:22:04Z</time>
      </trkpt>
      <trkpt lat="47.08109" lon="-1.41169">
        <ele>39</ele>
        <time>2023-10-29T20:22:45Z</time>
      </trkpt>
      <trkpt lat="47.08094" lon="-1.41173">
        <ele>39</ele>
        <time>2023-10-29T20:23:05Z</time>
      </trkpt>
      <trkpt lat="47.08076" lon="-1.41161">
        <ele>39</ele>
        <time>2023-10-29T20:23:31Z</time>
      </trkpt>
      <trkpt lat="47.08029" lon="-1.41202">
        <ele>40</ele>
        <time>2023-10-29T20:24:44Z</time>
      </trkpt>
      <trkpt lat="47.07933" lon="-1.41244">
        <ele>38</ele>
        <time>2023-10-29T20:26:58Z</time>
      </trkpt>
      <trkpt lat="47.07882" lon="-1.41304">
        <ele>39</ele>
        <time>2023-10-29T20:28:25Z</time>
      </trkpt>
      <trkpt lat="47.07833" lon="-1.41252">
        <ele>41</ele>
        <time>2023-10-29T20:29:46Z</time>
      </trkpt>
      <trkpt lat="47.07846" lon="-1.41211">
        <ele>42</ele>
        <time>2023-10-29T20:30:27Z</time>
      </trkpt>
      <trkpt lat="47.07781" lon="-1.41154">
        <ele>46</ele>
        <time>2023-10-29T20:32:08Z</time>
      </trkpt>
      <trkpt lat="47.07745" lon="-1.41121">
        <ele>48</ele>
        <time>2023-10-29T20:33:05Z</time>
      </trkpt>
      <trkpt lat="47.07689" lon="-1.41083">
        <ele>50</ele>
        <time>2023-10-29T20:34:27Z</time>
      </trkpt>
      <trkpt lat="47.07727" lon="-1.40981">
        <ele>51</ele>
        <time>2023-10-29T20:36:13Z</time>
      </trkpt>
      <trkpt lat="47.07759" lon="-1.40872">
        <ele>53</ele>
        <time>2023-10-29T20:38:01Z</time>
      </trkpt>
      <trkpt lat="47.07778" lon="-1.40827">
        <ele>52</ele>
        <time>2023-10-29T20:38:49Z</time>
      </trkpt>
      <trkpt lat="47.07759" lon="-1.40766">
        <ele>51</ele>
        <time>2023-10-29T20:39:50Z</time>
      </trkpt>
      <trkpt lat="47.07737" lon="-1.40743">
        <ele>49</ele>
        <time>2023-10-29T20:40:26Z</time>
      </trkpt>
      <trkpt lat="47.0769" lon="-1.40668">
        <ele>46</ele>
        <time>2023-10-29T20:41:58Z</time>
      </trkpt>
      <trkpt lat="47.07787" lon="-1.40555">
        <ele>48</ele>
        <time>2023-10-29T20:44:44Z</time>
      </trkpt>
      <trkpt lat="47.07787" lon="-1.40504">
        <ele>47</ele>
        <time>2023-10-29T20:45:30Z</time>
      </trkpt>
      <trkpt lat="47.07774" lon="-1.40432">
        <ele>46</ele>
        <time>2023-10-29T20:46:38Z</time>
      </trkpt>
      <trkpt lat="47.07593" lon="-1.40546">
        <ele>42</ele>
        <time>2023-10-29T20:51:00Z</time>
      </trkpt>
      <trkpt lat="47.07596" lon="-1.40568">
        <ele>42</ele>
        <time>2023-10-29T20:51:21Z</time>
      </trkpt>
      <trkpt lat="47.0754" lon="-1.40596">
        <ele>41</ele>
        <time>2023-10-29T20:52:40Z</time>
      </trkpt>
      <trkpt lat="47.07511" lon="-1.40442">
        <ele>42</ele>
        <time>2023-10-29T20:55:05Z</time>
      </trkpt>
      <trkpt lat="47.07507" lon="-1.4035">
        <ele>40</ele>
        <time>2023-10-29T20:56:29Z</time>
      </trkpt>
      <trkpt lat="47.07462" lon="-1.40323">
        <ele>38</ele>
        <time>2023-10-29T20:57:34Z</time>
      </trkpt>
      <trkpt lat="47.07384" lon="-1.40274">
        <ele>35</ele>
        <time>2023-10-29T20:59:27Z</time>
      </trkpt>
      <trkpt lat="47.07392" lon="-1.40166">
        <ele>35</ele>
        <time>2023-10-29T21:01:06Z</time>
      </trkpt>
      <trkpt lat="47.07382" lon="-1.40083">
        <ele>36</ele>
        <time>2023-10-29T21:02:22Z</time>
      </trkpt>
      <trkpt lat="47.07357" lon="-1.39954">
        <ele>35</ele>
        <time>2023-10-29T21:04:24Z</time>
      </trkpt>
      <trkpt lat="47.0724" lon="-1.40013">
        <ele>34</ele>
        <time>2023-10-29T21:07:09Z</time>
      </trkpt>
      <trkpt lat="47.07237" lon="-1.39991">
        <ele>34</ele>
        <time>2023-10-29T21:07:29Z</time>
      </trkpt>
      <trkpt lat="47.07253" lon="-1.39939">
        <ele>33</ele>
        <time>2023-10-29T21:08:21Z</time>
      </trkpt>
      <trkpt lat="47.07245" lon="-1.39815">
        <ele>32</ele>
        <time>2023-10-29T21:10:15Z</time>
      </trkpt>
      <trkpt lat="47.07223" lon="-1.39762">
        <ele>33</ele>
        <time>2023-10-29T21:11:11Z</time>
      </trkpt>
      <trkpt lat="47.07222" lon="-1.39708">
        <ele>33</ele>
        <time>2023-10-29T21:12:00Z</time>
      </trkpt>
      <trkpt lat="47.07202" lon="-1.3968">
        <ele>33</ele>
        <time>2023-10-29T21:12:37Z</time>
      </trkpt>
      <trkpt lat="47.07135" lon="-1.39474">
        <ele>36</ele>
        <time>2023-10-29T21:16:04Z</time>
      </trkpt>
      <trkpt lat="47.0705" lon="-1.39636">
        <ele>37</ele>
        <time>2023-10-29T21:19:10Z</time>
      </trkpt>
      <trkpt lat="47.06941" lon="-1.39786">
        <ele>42</ele>
        <time>2023-10-29T21:22:30Z</time>
      </trkpt>
      <trkpt lat="47.06822" lon="-1.40024">
        <ele>44</ele>
        <time>2023-10-29T21:26:58Z</time>
      </trkpt>
      <trkpt lat="47.06755" lon="-1.40009">
        <ele>45</ele>
        <time>2023-10-29T21:28:28Z</time>
      </trkpt>
      <trkpt lat="47.06664" lon="-1.39939">
        <ele>44</ele>
        <time>2023-10-29T21:30:46Z</time>
      </trkpt>
      <trkpt lat="47.06582" lon="-1.39843">
        <ele>44</ele>
        <time>2023-10-29T21:33:06Z</time>
      </trkpt>
      <trkpt lat="47.06532" lon="-1.39697">
        <ele>42</ele>
        <time>2023-10-29T21:35:34Z</time>
      </trkpt>
      <trkpt lat="47.0662" lon="-1.39488">
        <ele>38</ele>
        <time>2023-10-29T21:39:17Z</time>
      </trkpt>
      <trkpt lat="47.06618" lon="-1.39359">
        <ele>36</ele>
        <time>2023-10-29T21:41:15Z</time>
      </trkpt>
      <trkpt lat="47.06699" lon="-1.39206">
        <ele>37</ele>
        <time>2023-10-29T21:44:11Z</time>
      </trkpt>
      <trkpt lat="47.06318" lon="-1.38904">
        <ele>26</ele>
        <time>2023-10-29T21:53:49Z</time>
      </trkpt>
      <trkpt lat="47.05748" lon="-1.3824">
        <ele>28</ele>
        <time>2023-10-29T22:10:00Z</time>
      </trkpt>
      <trkpt lat="47.05935" lon="-1.38026">
        <ele>26</ele>
        <time>2023-10-29T22:15:16Z</time>
      </trkpt>
      <trkpt lat="47.05871" lon="-1.37943">
        <ele>28</ele>
        <time>2023-10-29T22:17:10Z</time>
      </trkpt>
      <trkpt lat="47.05778" lon="-1.37842">
        <ele>30</ele>
        <time>2023-10-29T22:19:44Z</time>
      </trkpt>
      <trkpt lat="47.05778" lon="-1.37818">
        <ele>30</ele>
        <time>2023-10-29T22:20:06Z</time>
      </trkpt>
      <trkpt lat="47.05569" lon="-1.37659">
        <ele>37</ele>
        <time>2023-10-29T22:25:20Z</time>
      </trkpt>
      <trkpt lat="47.05526" lon="-1.37609">
        <ele>39</ele>
        <time>2023-10-29T22:26:34Z</time>
      </trkpt>
      <trkpt lat="47.05358" lon="-1.37513">
        <ele>34</ele>
        <time>2023-10-29T22:30:34Z</time>
      </trkpt>
      <trkpt lat="47.0536" lon="-1.37471">
        <ele>30</ele>
        <time>2023-10-29T22:31:12Z</time>
      </trkpt>
      <trkpt lat="47.05392" lon="-1.3743">
        <ele>26</ele>
        <time>2023-10-29T22:32:09Z</time>
      </trkpt>
      <trkpt lat="47.05574" lon="-1.37422">
        <ele>27</ele>
        <time>2023-10-29T22:36:12Z</time>
      </trkpt>
      <trkpt lat="47.05588" lon="-1.37396">
        <ele>26</ele>
        <time>2023-10-29T22:36:42Z</time>
      </trkpt>
      <trkpt lat="47.0558" lon="-1.37312">
        <ele>23</ele>
        <time>2023-10-29T22:37:59Z</time>
      </trkpt>
      <trkpt lat="47.05602" lon="-1.37357">
        <ele>26</ele>
        <time>2023-10-29T22:38:50Z</time>
      </trkpt>
      <trkpt lat="47.05648" lon="-1.37389">
        <ele>30</ele>
        <time>2023-10-29T22:39:58Z</time>
      </trkpt>
      <trkpt lat="47.05693" lon="-1.37253">
        <ele>29</ele>
        <time>2023-10-29T22:42:15Z</time>
      </trkpt>
      <trkpt lat="47.05755" lon="-1.37082">
        <ele>24</ele>
        <time>2023-10-29T22:45:11Z</time>
      </trkpt>
      <trkpt lat="47.05877" lon="-1.37391">
        <ele>27</ele>
        <time>2023-10-29T22:50:36Z</time>
      </trkpt>
      <trkpt lat="47.05896" lon="-1.37363">
        <ele>25</ele>
        <time>2023-10-29T22:51:12Z</time>
      </trkpt>
      <trkpt lat="47.05912" lon="-1.37384">
        <ele>25</ele>
        <time>2023-10-29T22:51:40Z</time>
      </trkpt>
      <trkpt lat="47.05935" lon="-1.37371">
        <ele>23</ele>
        <time>2023-10-29T22:52:13Z</time>
      </trkpt>
      <trkpt lat="47.06027" lon="-1.3751">
        <ele>23</ele>
        <time>2023-10-29T22:55:10Z</time>
      </trkpt>
      <trkpt lat="47.06114" lon="-1.37513">
        <ele>21</ele>
        <time>2023-10-29T22:57:06Z</time>
      </trkpt>
      <trkpt lat="47.06272" lon="-1.37531">
        <ele>21</ele>
        <time>2023-10-29T23:00:37Z</time>
      </trkpt>
      <trkpt lat="47.06634" lon="-1.37632">
        <ele>20</ele>
        <time>2023-10-29T23:08:49Z</time>
      </trkpt>
      <trkpt lat="47.06687" lon="-1.37705">
        <ele>22</ele>
        <time>2023-10-29T23:10:26Z</time>
      </trkpt>
      <trkpt lat="47.06635" lon="-1.3778">
        <ele>25</ele>
        <time>2023-10-29T23:12:03Z</time>
      </trkpt>
      <trkpt lat="47.06626" lon="-1.38004">
        <ele>30</ele>
        <time>2023-10-29T23:15:27Z</time>
      </trkpt>
      <trkpt lat="47.06683" lon="-1.38221">
        <ele>26</ele>
        <time>2023-10-29T23:18:58Z</time>
      </trkpt>
      <trkpt lat="47.0682" lon="-1.38545">
        <ele>23</ele>
        <time>2023-10-29T23:24:45Z</time>
      </trkpt>
      <trkpt lat="47.06839" lon="-1.38529">
        <ele>20</ele>
        <time>2023-10-29T23:25:14Z</time>
      </trkpt>
      <trkpt lat="47.069" lon="-1.38601">
        <ele>20</ele>
        <time>2023-10-29T23:26:59Z</time>
      </trkpt>
      <trkpt lat="47.06926" lon="-1.38679">
        <ele>21</ele>
        <time>2023-10-29T23:28:18Z</time>
      </trkpt>
      <trkpt lat="47.07053" lon="-1.38838">
        <ele>20</ele>
        <time>2023-10-29T23:32:00Z</time>
      </trkpt>
      <trkpt lat="47.07125" lon="-1.38975">
        <ele>22</ele>
        <time>2023-10-29T23:34:38Z</time>
      </trkpt>
      <trkpt lat="47.07193" lon="-1.391">
        <ele>29</ele>
        <time>2023-10-29T23:37:03Z</time>
      </trkpt>
      <trkpt lat="47.07213" lon="-1.39277">
        <ele>36</ele>
        <time>2023-10-29T23:39:46Z</time>
      </trkpt>
      <trkpt lat="47.07469" lon="-1.39647">
        <ele>36</ele>
        <time>2023-10-29T23:47:46Z</time>
      </trkpt>
      <trkpt lat="47.07508" lon="-1.39702">
        <ele>38</ele>
        <time>2023-10-29T23:48:58Z</time>
      </trkpt>
      <trkpt lat="47.07556" lon="-1.39703">
        <ele>39</ele>
        <time>2023-10-29T23:50:02Z</time>
      </trkpt>
      <trkpt lat="47.07581" lon="-1.39727">
        <ele>41</ele>
        <time>2023-10-29T23:50:42Z</time>
      </trkpt>
      <trkpt lat="47.07725" lon="-1.3976">
        <ele>37</ele>
        <time>2023-10-29T23:53:56Z</time>
      </trkpt>
      <trkpt lat="47.07747" lon="-1.39797">
        <ele>38</ele>
        <time>2023-10-29T23:54:41Z</time>
      </trkpt>
    </trkseg>
  </trk>
</gpx>